Temperature
25 23 23 23 24 25 25 24 24 24 25 25 24 24 23 22 22 22 22 22 22 22 23 23 22 22 21 21 21 21 20 20 20 19 19 19 19 19 19 18 18 18 18 18
23 23 24 24 24 24 24 24 24 24 25 25 24 24 23 22 22 22 22 22 22 22 23 23 22 22 22 22 21 21 21 20 20 20 19 19 19 19 19 19 18 18 18 18
24 24 25 25 25 25 24 24 24 24 25 25 25 24 23 23 23 23 23 22 23 23 23 23 23 22 22 22 22 21 21 21 20 20 19 19 19 19 19 19 19 19 18 18
24 24 25 25 25 24 24 24 24 25 24 23 24 23 23 22 22 22 22 23 23 23 24 24 23 23 23 23 22 22 21 21 21 20 20 19 19 19 20 19 19 19 18 18
24 24 25 25 25 24 24 24 24 24 23 22 22 22 22 21 22 22 22 23 23 23 24 24 24 24 23 23 23 22 22 21 21 20 20 20 20 20 19 19 19 19 19 19
23 24 25 25 25 25 24 23 22 20 20 21 22 22 22 21 22 22 22 23 23 24 24 24 24 24 23 23 23 22 22 21 21 21 20 20 20 20 20 19 19 19 19 19
23 24 24 25 24 24 23 22 21 21 20 20 21 21 21 22 22 22 22 23 24 24 24 24 24 24 23 23 23 23 22 22 21 21 21 20 20 20 20 20 19 19 19 19
22 22 24 24 24 23 22 21 21 21 20 20 20 20 21 22 22 23 23 24 24 24 24 24 24 24 24 24 23 23 23 22 22 21 21 21 20 20 20 20 19 19 19 19
20 21 23 24 24 23 22 20 21 19 19 20 19 20 21 22 21 21 22 22 23 24 24 24 24 24 24 24 24 23 23 23 22 22 21 21 21 20 20 20 20 19 19 19
20 21 22 23 24 23 22 20 18 18 19 20 20 20 21 22 21 20 20 21 22 23 23 24 24 24 24 24 24 23 23 23 23 22 21 21 21 20 20 20 20 20 19 19
20 20 21 22 22 22 21 20 18 17 18 19 19 20 21 21 20 20 20 21 22 22 23 23 24 24 24 23 23 23 23 23 22 22 21 21 21 20 20 20 20 19 19 19
18 17 19 20 21 22 21 20 18 19 19 17 18 20 21 20 19 19 20 21 22 22 23 23 23 23 23 23 23 22 22 22 22 22 21 21 21 20 20 20 20 19 19 19
18 17 18 20 21 20 21 20 18 17 16 16 18 20 20 19 18 19 19 20 21 22 22 22 22 22 22 22 22 22 22 22 22 22 21 21 20 20 20 20 19 19 19 19
17 16 18 19 19 20 20 20 19 18 17 17 18 20 19 19 18 18 19 20 20 21 21 21 22 22 22 22 22 22 21 21 21 21 21 20 20 20 20 20 19 19 19 19
16 16 17 18 19 19 20 20 20 19 18 19 19 18 19 18 18 18 19 19 20 20 20 21 21 21 21 21 21 21 21 21 21 21 20 20 20 19 19 19 19 19 19 19
14 16 17 18 19 19 19 20 20 20 19 19 19 18 18 18 18 18 18 18 19 19 20 20 21 21 21 21 21 20 20 20 20 20 20 20 20 19 19 19 19 19 19 19
13 15 16 16 17 19 18 19 19 19 19 18 19 18 17 17 17 17 18 18 18 19 19 19 20 20 20 20 20 20 20 20 20 20 20 19 19 19 19 19 19 19 19 19
13 13 13 14 17 18 18 18 18 18 17 17 17 17 17 16 17 17 18 18 18 18 19 19 20 20 20 20 20 19 19 19 19 19 19 19 19 19 19 18 18 18 18 18
12 13 13 13 15 16 18 18 17 17 17 16 16 16 16 16 16 17 17 18 18 19 19 19 19 19 19 19 19 19 19 19 19 19 18 18 18 18 18 18 18 18 18 18
11 12 12 13 15 16 17 17 17 17 16 16 15 15 15 16 15 16 17 17 18 18 19 19 19 19 19 19 19 18 18 18 18 18 18 18 18 17 17 17 17 17 17 17
13 12 12 13 14 15 16 16 17 17 16 16 16 16 16 15 16 16 17 17 17 18 18 18 18 18 18 18 18 18 18 17 18 18 18 17 17 17 17 17 17 17 17 17
12 12 12 12 14 15 15 15 15 15 16 16 16 16 16 16 16 16 17 17 17 17 17 18 18 18 18 18 18 17 17 17 17 17 17 17 17 16 16 16 16 16 16 16
11 12 11 12 13 13 14 14 15 16 16 16 16 16 16 16 16 16 16 17 17 17 17 17 17 17 17 17 17 17 17 16 16 16 16 16 16 16 16 16 16 15 15 15
12 11 11 11 12 13 14 15 15 16 16 16 16 16 16 16 16 16 16 16 17 17 17 17 17 17 17 17 16 16 16 16 16 15 15 15 15 15 15 15 15 15 14 14
11 11 11 11 12 13 14 15 15 16 16 16 16 16 16 16 16 16 16 16 16 16 16 16 16 16 16 16 16 16 15 15 15 15 15 15 15 15 14 14 14 14 14 14
10 11 11 12 13 12 14 15 15 15 15 15 15 15 15 15 15 15 15 15 15 15 15 15 15 15 15 15 15 15 15 15 15 14 14 14 14 14 14 14 14 14 14 14
Wind_Speed
3 5 4 8 8 6 5 4 5 6 4 4 6 6 6 10 11 11 11 11 12 13 10 9 10 10 10 9 9 10 9 8 6 4 4 3 3 3 3 4 6 7 8 7
4 4 8 6 5 4 5 4 5 5 1 4 4 6 4 10 14 13 13 13 13 11 8 10 10 11 11 12 11 10 10 9 8 6 4 3 3 3 3 3 4 6 7 7
7 6 4 5 4 4 4 6 6 4 3 2 1 5 2 4 6 8 9 10 11 14 14 12 12 12 12 12 13 12 11 9 9 7 3 2 1 0 1 2 3 4 6 7
5 5 3 4 4 6 6 6 5 2 1 3 1 3 6 5 5 8 10 11 12 13 13 12 13 13 13 13 12 11 11 10 9 8 7 6 5 5 5 4 4 3 4 5
6 4 5 5 7 7 7 3 3 3 3 1 1 2 8 2 6 10 12 13 14 13 14 14 15 15 13 12 11 10 9 8 8 8 9 8 6 5 3 3 3 4 3 4
6 4 5 7 4 5 4 5 6 6 4 2 4 4 7 5 8 8 10 13 13 13 13 13 12 10 10 10 10 9 9 8 8 8 8 8 8 7 5 4 4 4 3 3
5 4 3 3 1 1 5 6 3 3 2 6 3 4 9 8 8 8 9 11 12 11 12 12 11 12 12 12 12 11 11 10 9 9 9 8 8 7 7 6 5 4 3 3
2 6 4 3 6 6 6 10 8 7 7 5 2 6 8 7 5 4 4 5 7 9 10 11 13 13 13 13 13 13 13 12 10 10 9 8 7 6 6 6 5 5 5 5
5 7 5 4 4 8 6 5 7 7 3 2 5 6 7 4 4 3 3 2 5 8 10 12 12 12 13 13 14 14 13 12 11 11 9 8 7 7 6 6 5 4 4 4
6 5 6 4 2 1 6 8 6 7 7 4 5 5 6 7 7 5 3 3 4 4 6 8 10 11 12 12 11 11 11 11 10 9 8 7 7 7 6 5 5 5 5 4
3 4 5 2 3 5 3 4 5 5 6 7 5 8 6 8 7 6 5 4 3 3 4 6 7 8 8 8 9 10 10 9 8 8 8 7 7 7 6 5 6 5 4 5
1 4 3 6 5 3 5 7 8 6 5 5 5 8 5 5 4 4 3 2 1 3 3 4 5 6 7 8 8 9 9 9 9 8 8 7 6 6 6 6 6 5 5 5
1 4 1 5 5 4 2 2 5 6 5 5 6 7 3 1 1 1 2 1 0 2 3 4 5 6 7 6 7 7 7 7 7 8 7 6 5 6 6 6 5 5 6 6
3 3 5 8 7 3 2 2 3 5 4 6 8 8 6 4 2 2 1 0 1 2 4 4 4 4 6 6 6 6 6 5 5 6 6 5 5 5 6 6 5 5 5 5
4 1 2 5 4 2 3 5 4 5 7 8 8 7 8 6 3 1 0 1 2 2 3 3 4 3 4 5 5 5 5 5 5 5 5 5 5 5 5 5 6 5 5 5
4 1 1 3 3 2 3 5 4 4 4 5 4 6 5 2 1 1 1 1 2 2 2 3 3 3 4 5 5 5 5 4 4 5 6 5 5 5 5 6 5 5 5 5
1 2 1 3 4 2 4 4 3 2 2 4 6 6 2 2 2 3 2 2 1 1 1 2 2 3 4 5 5 6 5 4 4 4 3 3 3 4 4 4 3 4 4 4
4 3 2 1 2 4 7 3 2 2 1 1 2 2 3 3 1 1 1 2 1 1 1 1 2 2 3 4 4 4 5 5 5 5 4 4 4 4 3 3 4 4 3 4
5 6 3 2 2 5 5 2 1 2 2 2 2 3 4 4 4 4 2 1 2 2 2 2 3 3 2 2 4 4 4 4 5 5 5 5 4 4 4 4 4 4 3 3
4 4 4 3 3 6 6 4 3 2 2 2 3 4 3 3 1 3 2 0 1 1 1 1 1 2 2 1 3 4 4 3 4 4 4 4 4 4 5 5 5 4 3 4
2 2 2 3 4 6 5 6 2 3 6 3 3 3 3 3 4 4 3 2 2 2 2 0 1 2 2 2 4 3 3 3 3 3 3 3 3 4 5 5 4 3 3 3
3 2 3 3 3 6 4 2 2 5 3 2 2 2 1 1 1 1 2 2 2 2 2 2 2 2 1 2 4 3 2 2 1 1 1 2 2 3 2 3 3 3 3 3
3 5 5 6 6 6 4 4 4 2 2 2 2 2 2 1 1 2 3 3 2 3 2 2 2 1 0 1 3 4 3 2 2 1 1 1 2 2 2 2 3 3 3 3
2 1 2 2 5 6 5 4 4 2 2 2 2 2 2 2 2 1 2 2 2 1 1 2 2 2 1 1 2 3 4 3 2 2 2 2 2 2 2 2 3 3 4 4
4 2 1 3 5 5 5 4 4 3 2 2 1 1 2 2 1 1 1 2 1 1 0 1 2 2 3 2 2 3 3 3 3 3 3 3 3 3 3 3 3 4 5 6
4 6 5 6 6 4 5 5 4 3 2 2 1 2 1 1 2 2 2 2 1 1 1 1 2 2 3 2 3 3 3 3 4 4 4 4 3 3 3 3 4 4 6 7
Wind_Direction
84 100 187 207 196 194 192 205 254 260 235 193 229 245 216 188 194 198 200 200 204 213 210 194 190 185 178 180 185 190 190 186 171 166 175 186 211 216 218 222 221 214 213 209
52 230 219 201 189 180 184 214 254 286 270 186 235 261 230 192 201 202 202 204 208 209 201 195 191 186 186 188 190 192 196 188 185 187 179 177 183 203 213 221 218 215 214 211
196 229 184 167 185 183 205 201 223 247 340 27 90 319 284 228 211 210 210 208 208 207 204 199 194 193 191 194 194 197 195 191 191 184 159 136 117 112 192 217 222 222 218 215
223 238 173 176 209 178 240 221 204 206 80 290 127 266 284 240 224 222 218 210 211 211 203 197 193 194 197 199 195 194 190 190 189 178 177 183 194 209 216 210 215 225 219 217
236 199 186 209 217 181 215 202 180 176 170 287 342 189 283 289 245 241 226 217 213 207 201 198 197 197 196 192 188 189 186 189 186 184 188 192 207 215 213 209 219 224 222 220
240 227 200 212 216 184 157 77 59 53 84 244 235 186 269 243 231 243 228 220 214 205 201 200 198 189 189 185 183 180 180 188 185 187 192 196 204 206 205 213 219 225 224 225
302 287 245 178 130 92 116 105 44 356 358 243 225 192 246 252 239 233 233 224 213 201 197 194 189 188 188 185 185 182 182 190 188 189 195 198 203 203 209 214 215 217 218 224
228 280 245 196 184 188 180 151 166 196 216 255 232 219 250 265 268 259 247 226 203 196 194 194 193 193 191 188 187 185 185 190 188 192 199 199 201 204 215 215 208 210 214 222
193 251 280 232 194 154 150 179 169 146 158 194 257 268 292 284 289 286 276 231 205 201 196 197 193 192 191 190 189 187 185 187 190 194 194 195 200 204 210 211 207 210 210 217
172 241 279 283 83 83 156 148 109 135 160 220 264 254 241 257 265 275 264 239 223 204 198 194 191 192 191 192 185 179 181 186 189 188 191 201 202 206 205 199 204 208 214 214
140 183 295 10 159 205 120 113 123 136 159 167 225 257 232 230 241 245 249 234 206 195 192 189 187 181 175 173 174 177 180 178 182 187 192 198 203 203 200 205 211 210 213 212
110 135 248 263 260 214 169 167 153 161 212 184 188 254 278 229 235 232 254 258 200 174 176 168 158 151 158 165 171 174 177 181 184 188 193 202 205 198 201 212 215 206 212 216
67 105 31 333 338 10 70 145 157 141 134 162 183 253 302 324 311 280 251 270 125 135 133 128 132 147 157 160 161 164 172 183 181 181 186 197 207 203 208 215 215 209 214 215
112 121 178 206 226 236 275 266 174 143 166 198 216 235 273 271 267 291 307 6 103 129 133 133 139 152 154 151 156 161 164 166 163 162 171 186 207 218 221 218 216 214 213 213
84 136 240 246 250 229 243 258 224 199 194 196 224 221 243 242 220 231 281 96 91 86 96 115 134 139 134 136 144 153 158 160 159 159 176 189 196 205 229 233 227 215 213 218
47 130 305 286 278 274 270 277 246 229 208 203 199 244 245 208 121 119 131 117 106 96 97 102 119 138 151 151 152 155 158 160 160 176 191 193 195 198 211 225 225 218 213 213
33 123 91 269 305 7 266 264 221 224 237 193 215 229 187 149 169 187 164 141 153 169 136 121 134 155 165 160 160 161 160 154 165 181 186 195 197 202 216 227 227 229 221 215
164 130 151 239 31 223 244 275 181 168 304 271 199 182 153 136 125 19 103 140 190 232 163 152 162 168 177 160 155 163 158 167 174 176 191 201 195 199 205 209 225 232 225 222
176 152 144 144 203 266 285 275 177 179 300 333 148 124 110 100 58 0 341 149 194 223 213 208 190 165 167 161 154 159 166 170 178 189 204 208 200 203 206 220 231 232 223 225
79 110 133 146 173 234 253 306 320 110 273 264 150 142 126 93 90 267 275 243 259 282 256 216 128 107 142 147 135 146 157 163 194 207 213 210 203 209 220 228 229 223 217 227
37 55 148 178 213 257 278 312 341 186 237 236 209 181 160 187 216 233 240 251 251 262 266 175 122 145 189 158 132 137 152 193 215 206 194 193 204 220 222 224 221 214 216 222
182 164 185 162 196 255 308 4 192 231 263 232 219 228 194 211 248 241 233 240 256 270 252 191 164 186 197 153 142 150 195 226 199 176 194 218 219 236 241 216 225 225 221 231
199 197 193 196 219 260 280 254 263 235 235 262 236 246 167 168 280 297 294 266 246 243 224 196 168 166 205 175 166 178 215 208 169 146 216 260 269 269 251 226 232 238 233 237
273 175 154 258 269 280 291 297 302 276 243 262 231 216 182 191 226 268 282 273 265 256 203 168 151 159 229 234 209 213 215 196 177 202 231 240 250 271 270 251 238 239 241 242
231 184 177 256 273 305 306 298 297 309 336 351 330 256 198 184 231 256 294 301 290 285 275 142 162 190 229 245 244 236 217 187 193 214 229 238 240 243 260 269 255 241 243 235
212 194 195 234 237 227 264 280 284 281 290 297 324 338 295 203 226 251 274 280 276 259 235 172 194 211 233 234 249 256 241 204 198 222 231 235 237 241 245 258 288 284 258 250
Height
1478 1485 1492 1490 1488 1489 1492 1498 1500 1494 1486 1489 1492 1491 1488 1488 1491 1493 1495 1497 1499 1501 1504 1508 1511 1514 1517 1520 1522 1525 1527 1529 1531 1533 1535 1536 1538 1539 1540 1542 1543 1544 1544 1545
1484 1487 1481 1481 1484 1487 1491 1498 1498 1491 1485 1488 1491 1490 1486 1486 1486 1488 1491 1493 1495 1498 1502 1505 1508 1511 1514 1517 1520 1523 1525 1528 1530 1532 1534 1535 1537 1538 1539 1540 1541 1542 1543 1544
1483 1480 1475 1479 1484 1489 1491 1495 1494 1494 1488 1487 1491 1494 1489 1485 1486 1487 1489 1490 1492 1494 1497 1500 1504 1507 1511 1513 1516 1519 1523 1526 1528 1530 1532 1534 1535 1536 1537 1538 1539 1540 1541 1542
1478 1474 1475 1479 1482 1485 1493 1484 1486 1490 1497 1504 1497 1513 1494 1487 1486 1484 1485 1486 1487 1489 1492 1495 1499 1503 1506 1510 1514 1517 1520 1523 1525 1528 1530 1531 1532 1533 1535 1536 1537 1538 1539 1540
1477 1473 1474 1478 1477 1478 1482 1479 1484 1489 1497 1505 1502 1510 1501 1489 1488 1482 1479 1480 1481 1484 1487 1490 1494 1497 1502 1506 1510 1514 1517 1520 1523 1525 1527 1529 1530 1531 1532 1534 1535 1536 1537 1538
1471 1468 1469 1470 1469 1472 1475 1482 1489 1498 1505 1517 1505 1511 1506 1491 1483 1476 1473 1474 1475 1478 1482 1486 1490 1495 1499 1503 1507 1511 1514 1517 1520 1522 1524 1526 1527 1528 1529 1530 1532 1533 1534 1535
1476 1470 1466 1466 1471 1473 1477 1495 1516 1518 1526 1521 1504 1507 1500 1477 1471 1469 1468 1468 1470 1473 1478 1482 1486 1490 1494 1498 1502 1506 1510 1513 1516 1518 1520 1522 1524 1525 1526 1527 1528 1529 1530 1532
1487 1485 1468 1465 1469 1476 1479 1489 1513 1524 1527 1519 1506 1507 1488 1470 1467 1466 1465 1465 1467 1470 1473 1477 1481 1485 1489 1493 1497 1501 1504 1508 1512 1514 1516 1519 1520 1522 1523 1524 1525 1526 1527 1529
1487 1484 1465 1461 1461 1467 1479 1487 1486 1506 1513 1518 1511 1498 1481 1468 1466 1464 1463 1464 1464 1466 1469 1472 1476 1480 1484 1488 1492 1496 1500 1504 1507 1511 1513 1515 1517 1518 1519 1520 1522 1523 1525 1526
1476 1482 1469 1462 1461 1464 1468 1478 1494 1506 1519 1522 1510 1501 1491 1473 1468 1465 1463 1462 1462 1464 1466 1469 1473 1477 1481 1485 1488 1492 1496 1500 1504 1507 1510 1512 1514 1515 1516 1517 1519 1520 1522 1523
1472 1481 1475 1468 1469 1472 1474 1480 1489 1500 1502 1515 1519 1501 1470 1467 1464 1463 1461 1460 1461 1462 1463 1466 1469 1473 1477 1481 1485 1488 1492 1496 1500 1503 1506 1508 1510 1512 1513 1514 1515 1517 1518 1520
1473 1481 1485 1474 1464 1462 1465 1472 1483 1495 1501 1504 1505 1492 1461 1461 1460 1460 1460 1459 1459 1461 1462 1464 1467 1470 1474 1477 1481 1484 1488 1492 1496 1499 1502 1504 1506 1508 1510 1511 1512 1513 1515 1516
1473 1483 1491 1485 1478 1469 1468 1469 1474 1482 1494 1503 1503 1487 1461 1460 1460 1460 1460 1459 1459 1460 1461 1463 1465 1468 1471 1474 1477 1481 1484 1488 1491 1495 1498 1500 1503 1505 1506 1507 1508 1509 1510 1512
1470 1482 1487 1489 1482 1475 1473 1470 1471 1478 1490 1494 1488 1478 1466 1462 1461 1461 1460 1459 1459 1460 1461 1462 1464 1466 1469 1472 1475 1478 1481 1485 1488 1491 1494 1496 1499 1501 1503 1504 1505 1505 1506 1507
1470 1481 1478 1475 1470 1469 1469 1467 1467 1471 1474 1479 1474 1473 1465 1460 1461 1461 1460 1460 1460 1460 1461 1462 1464 1466 1468 1471 1474 1477 1479 1483 1485 1487 1490 1492 1495 1497 1499 1500 1501 1501 1502 1503
1474 1479 1477 1475 1469 1468 1468 1465 1464 1464 1465 1467 1466 1467 1459 1458 1459 1460 1460 1460 1460 1460 1461 1462 1464 1466 1468 1469 1472 1474 1477 1479 1482 1485 1486 1489 1491 1493 1494 1496 1497 1497 1498 1499
1478 1480 1483 1483 1473 1470 1475 1465 1463 1462 1460 1462 1464 1461 1457 1458 1458 1459 1459 1460 1461 1461 1462 1462 1464 1465 1467 1468 1470 1473 1475 1477 1480 1482 1483 1486 1487 1488 1490 1492 1492 1492 1493 1494
1478 1483 1488 1488 1479 1485 1471 1458 1458 1460 1459 1457 1457 1456 1456 1457 1459 1459 1459 1460 1461 1461 1461 1462 1463 1464 1466 1466 1468 1470 1473 1475 1477 1478 1479 1482 1484 1485 1486 1487 1487 1487 1488 1489
1472 1479 1487 1491 1488 1479 1466 1459 1459 1461 1462 1457 1457 1456 1457 1458 1458 1459 1459 1459 1460 1460 1460 1461 1462 1462 1464 1465 1466 1468 1471 1472 1473 1474 1477 1479 1479 1480 1482 1482 1483 1483 1483 1484
1472 1475 1484 1489 1486 1485 1468 1457 1455 1459 1464 1457 1456 1456 1457 1457 1462 1460 1458 1459 1459 1459 1459 1460 1461 1461 1463 1463 1465 1466 1468 1469 1470 1472 1473 1475 1475 1477 1477 1478 1478 1479 1479 1479
1478 1481 1484 1486 1484 1475 1461 1457 1456 1467 1463 1456 1455 1454 1455 1456 1457 1457 1456 1457 1458 1458 1458 1459 1460 1461 1462 1463 1463 1464 1465 1466 1467 1469 1470 1471 1472 1473 1473 1473 1474 1474 1474 1474
1479 1481 1484 1485 1484 1477 1459 1457 1460 1459 1454 1453 1454 1454 1454 1454 1454 1455 1454 1454 1455 1456 1456 1457 1458 1459 1460 1461 1461 1462 1463 1464 1465 1466 1467 1468 1468 1469 1470 1470 1470 1470 1470 1470
1475 1475 1475 1475 1473 1463 1459 1458 1456 1454 1454 1453 1453 1453 1454 1453 1453 1454 1453 1453 1454 1455 1455 1455 1456 1457 1458 1459 1460 1460 1461 1462 1462 1463 1464 1465 1465 1465 1466 1465 1465 1465 1465 1465
1470 1469 1470 1470 1464 1460 1457 1456 1455 1454 1453 1453 1453 1453 1453 1453 1452 1452 1452 1452 1452 1453 1453 1453 1454 1455 1456 1456 1458 1459 1459 1459 1460 1460 1460 1461 1461 1461 1462 1462 1462 1462 1461 1461
1468 1467 1468 1467 1462 1458 1455 1455 1454 1453 1452 1452 1452 1452 1452 1452 1452 1452 1451 1450 1450 1451 1451 1451 1452 1452 1453 1454 1456 1457 1457 1456 1456 1457 1457 1457 1457 1457 1457 1457 1457 1457 1457 1458
1463 1463 1465 1462 1457 1457 1454 1452 1452 1452 1451 1451 1450 1450 1451 1451 1451 1450 1450 1449 1449 1449 1449 1449 1449 1450 1451 1452 1452 1453 1453 1453 1452 1452 1452 1453 1452 1452 1452 1452 1451 1451 1452 1452